Location: Gull Harbor
(47.1000°N, 122.9000°W)
Time: 15:35:20
(UTC-07:00)

Amateur Radio Satellites - All Passes

Search period start: 24 July 2017 15:05
Search period end: 25 July 2017 15:05
Location: Gull Harbor, 47.1000°N, 122.9000°W

Satellite Date Start Highest point End Downlink Frequencies (MHz)
Time Altitude Azimuth
NO-84 24 Jul 15:15:18 15:18:06 23° 359° (N) 15:21:07 435.350 FM
Oscar 19 24 Jul 15:17:47 15:20:51 16° 271° (W) 15:23:55 437.125/150
AO-85 24 Jul 15:23:27 15:26:20 19° 324° (NW) 15:29:14 145.980
ITAMSAT 1 24 Jul 15:25:51 15:31:00 63° 71° (ENE) 15:36:12 435.822/435.867
BEESAT 24 Jul 15:31:34 15:35:15 22° 93° (E) 15:38:55 436.000
BEESAT 2 24 Jul 15:33:25 15:37:03 32° 317° (NW) 15:40:46 435.950
Gurwin Techsat 1B 24 Jul 15:38:36 15:41:59 17° 271° (W) 15:45:23 435.225
ITUPSAT 1 24 Jul 15:44:05 15:48:11 28° 95° (E) 15:52:15 437.325
UKube-1 24 Jul 15:48:59 15:52:49 32° 294° (WNW) 15:56:40 .
PCSat 24 Jul 15:56:53 16:01:17 26° 251° (WSW) 16:05:41 145.827
RS-15 24 Jul 16:02:13 16:13:39 49° 111° (ESE) 16:25:11 29.354- 29.394
DOVE 4 24 Jul 16:18:52 16:21:51 16° 57° (ENE) 16:24:54 437.250
AO-7 24 Jul 16:23:39 16:31:45 53° 258° (WSW) 16:39:56 .
MOZHAYETS 4 24 Jul 16:37:03 16:41:37 71° 102° (ESE) 16:46:09
SO-50 24 Jul 16:37:45 16:41:33 26° 245° (WSW) 16:45:22 436.795
O/OREOS (USA 219) 24 Jul 16:40:53 16:45:19 59° 298° (WNW) 16:49:45 437.305
NO-84 24 Jul 16:52:59 16:56:21 33° 20° (NNE) 16:59:57 435.350 FM
XW-2F 24 Jul 17:03:03 17:03:16 10° 60° (ENE) 17:03:29 145.980 - 146.000
ITAMSAT 1 24 Jul 17:07:10 17:10:54 20° 269° (W) 17:14:39 435.822/435.867
BEESAT 24 Jul 17:08:41 17:13:17 48° 291° (WNW) 17:17:49 436.000
CUBESAT XI-V 24 Jul 17:10:13 17:14:27 33° 96° (E) 17:18:42 437.345
CUTE-I 24 Jul 17:10:51 17:14:43 20° 58° (ENE) 17:18:34 437.470
ITUPSAT 1 24 Jul 17:21:42 17:26:06 38° 293° (WNW) 17:30:28 437.325
KKS-1 24 Jul 17:22:38 17:26:17 24° 94° (E) 17:29:54 437.445
XW-2D 24 Jul 17:28:31 17:31:20 20° 66° (ENE) 17:34:09 145.860 - 145.880
XW-2B 24 Jul 17:38:14 17:41:20 25° 67° (ENE) 17:44:25 145.730 - 145.750
YUBILEINY 24 Jul 17:53:42 17:59:47 21° 76° (ENE) 18:05:52 435.215
DOVE 4 24 Jul 17:53:51 17:58:46 85° 256° (WSW) 18:03:58 437.250
STARS 24 Jul 17:54:03 17:57:28 22° 93° (E) 18:00:51 437.465
XW-2C 24 Jul 17:55:04 17:58:34 37° 71° (ENE) 18:02:03 145.795 - 145.815
NUDT-PHONESAT 24 Jul 18:04:57 18:08:21 36° 70° (ENE) 18:11:45 437.300
HO-68 24 Jul 18:06:14 18:12:11 29° 56° (NE) 18:18:09 435.675
CUTE 1.7 + AOD 2 24 Jul 18:06:50 18:08:18 12° 58° (ENE) 18:09:46 437.475
RS-15 24 Jul 18:13:41 18:25:54 65° 316° (NW) 18:38:12 29.354- 29.394
MOZHAYETS 4 24 Jul 18:15:32 18:18:14 16° 301° (WNW) 18:20:55
LilacSat-2 24 Jul 18:17:34 18:21:18 74° 76° (ENE) 18:25:05 437.200
KAITUO 1B 24 Jul 18:18:21 18:21:58 53° 73° (ENE) 18:25:35 145.475/437.950
SEEDS 24 Jul 18:20:53 18:21:32 10° 57° (ENE) 18:22:09 437.485
O/OREOS (USA 219) 24 Jul 18:24:54 18:25:44 10° 320° (NW) 18:26:33 437.305
NO-84 24 Jul 18:30:16 18:34:03 66° 218° (SW) 18:38:08 435.350 FM
XW-2F 24 Jul 18:33:04 18:36:48 81° 257° (WSW) 18:40:33 145.980 - 146.000
CUBESAT XI-V 24 Jul 18:47:41 18:51:46 31° 294° (WNW) 18:55:51 437.345
CUTE-I 24 Jul 18:48:52 18:54:13 70° 257° (WSW) 18:59:37 437.470
KKS-1 24 Jul 18:58:46 19:02:58 40° 292° (WNW) 19:07:08 437.445
XW-2D 24 Jul 19:01:54 19:05:19 34° 263° (W) 19:08:47 145.860 - 145.880
AAUSAT CUBESAT 2 24 Jul 19:04:13 19:06:20 14° 60° (ENE) 19:08:28 437.432
XW-2B 24 Jul 19:12:11 19:15:25 27° 264° (W) 19:18:41 145.730 - 145.750
CUBEBUG 2 24 Jul 19:14:29 19:18:37 32° 67° (ENE) 19:22:40 437.445
STARS 24 Jul 19:29:48 19:34:00 43° 291° (WNW) 19:38:08 437.465
XW-2A 24 Jul 19:29:53 19:33:06 43° 72° (ENE) 19:36:21 145.665 - 145.685
XW-2C 24 Jul 19:30:18 19:32:54 18° 268° (W) 19:35:31 145.795 - 145.815
AO-73 24 Jul 19:34:05 19:36:48 16° 62° (ENE) 19:39:27 145.935
DOVE 4 24 Jul 19:35:32 19:37:18 12° 276° (W) 19:39:06 437.250
CUTE 1.7 + AOD 2 24 Jul 19:39:17 19:43:29 86° 257° (WSW) 19:47:43 437.475
NUDT-PHONESAT 24 Jul 19:39:49 19:42:23 18° 268° (W) 19:44:57 437.300
YUBILEINY 24 Jul 19:46:28 19:55:20 89° 99° (E) 20:04:14 435.215
STRAND 1 24 Jul 19:47:57 19:52:01 23° 93° (E) 19:56:03 437.568
HO-68 24 Jul 19:52:14 19:59:23 69° 256° (WSW) 20:06:35 435.675
SEEDS 24 Jul 19:52:21 19:56:30 84° 75° (ENE) 20:00:41 437.485
BEESAT 3 24 Jul 19:54:40 19:56:43 13° 29° (NNE) 19:58:45 437.485
KAITUO 1B 24 Jul 19:54:41 19:56:18 12° 270° (W) 19:57:54 145.475/437.950
Tancredo 1 24 Jul 20:06:30 20:07:00 10° 134° (SE) 20:07:30 437.200
NO-84 24 Jul 20:09:28 20:11:02 12° 234° (SW) 20:12:39 435.350 FM
UWE-3 24 Jul 20:12:55 20:17:28 70° 74° (ENE) 20:21:55 435.000/436.395/437.385
ZACube-1 24 Jul 20:27:46 20:32:07 56° 72° (ENE) 20:36:23 437.345
AO-85 24 Jul 20:29:30 20:32:49 23° 38° (NE) 20:36:16 145.980
RS-15 24 Jul 20:30:15 20:41:20 36° 347° (NNW) 20:52:15 29.354- 29.394
BEESAT 2 24 Jul 20:33:36 20:35:31 13° 28° (NNE) 20:37:25 435.950
AAUSAT CUBESAT 2 24 Jul 20:37:12 20:41:17 68° 259° (W) 20:45:24 437.432
CUBEBUG 2 24 Jul 20:50:57 20:55:10 32° 264° (W) 20:59:20 437.445
Oscar 11 24 Jul 20:54:37 20:58:54 73° 74° (ENE) 21:03:12 .
XW-2A 24 Jul 21:04:32 21:06:05 13° 269° (W) 21:07:37 145.665 - 145.685
AO-73 24 Jul 21:08:12 21:12:35 63° 259° (W) 21:16:53 145.935
ISS 24 Jul 21:12:27 21:14:47 18° 138° (SE) 21:17:07 437.550
STRAND 1 24 Jul 21:26:31 21:31:28 51° 291° (WNW) 21:36:23 437.568
BEESAT 3 24 Jul 21:31:07 21:35:07 61° 50° (NE) 21:39:02 437.485
Tancredo 1 24 Jul 21:38:58 21:41:52 67° 153° (SSE) 21:44:49 437.200
FO-29 24 Jul 21:42:18 21:48:03 25° 87° (E) 21:53:17 435.910
DELFI C3 24 Jul 21:42:45 21:46:38 62° 73° (ENE) 21:50:34 145.870
HO-68 24 Jul 21:45:20 21:48:26 13° 276° (W) 21:51:33 435.675
YUBILEINY 24 Jul 21:46:40 21:53:27 24° 301° (WNW) 22:00:16 435.215
UWE-3 24 Jul 21:51:57 21:54:21 14° 271° (W) 21:56:45 435.000/436.395/437.385
nSIGHT-1 24 Jul 21:54:01 21:57:04 40° 145° (SE) 22:00:08 .
ZACube-1 24 Jul 22:05:54 22:08:43 16° 270° (W) 22:11:30 437.345
TIGRISAT 24 Jul 22:08:59 22:11:24 14° 89° (E) 22:13:47 435.000
AO-85 24 Jul 22:09:23 22:13:30 59° 237° (WSW) 22:17:53 145.980
BEESAT 2 24 Jul 22:10:08 22:14:09 55° 49° (NE) 22:18:07 435.950
EO-88 24 Jul 22:14:36 22:18:14 88° 254° (WSW) 22:21:54 145.990 - 145.960
LO-87 24 Jul 22:21:14 22:23:35 16° 64° (ENE) 22:25:56 145.935 - 145.965
Oscar 11 24 Jul 22:33:48 22:35:33 12° 272° (W) 22:37:18 .
RS-15 24 Jul 22:46:40 22:58:02 40° 21° (NNE) 23:08:58 29.354- 29.394
ISS 24 Jul 22:47:39 22:50:55 83° 338° (NNW) 22:54:11 437.550
UNISAT 6 24 Jul 22:59:52 23:04:08 51° 100° (E) 23:08:17 437.425
PRISM 24 Jul 23:02:00 23:06:01 43° 99° (E) 23:10:00 437.425
BEESAT 3 24 Jul 23:09:47 23:12:14 16° 248° (WSW) 23:14:40 437.485
Tancredo 1 24 Jul 23:14:40 23:17:27 36° 351° (N) 23:20:13 437.200
DELFI C3 24 Jul 23:20:09 23:21:49 12° 271° (W) 23:23:30 145.870
FO-29 24 Jul 23:26:32 23:33:49 69° 290° (WNW) 23:40:14 435.910
nSIGHT-1 24 Jul 23:30:19 23:33:27 48° 344° (NNW) 23:36:37 .
ESTCUBE 1 24 Jul 23:34:03 23:38:29 68° 74° (ENE) 23:42:58 437.505/2401.250
SPROUT 24 Jul 23:38:18 23:41:36 22° 64° (ENE) 23:44:54 437.525
TIGRISAT 24 Jul 23:44:14 23:48:32 61° 287° (WNW) 23:52:43 435.000
BEESAT 2 24 Jul 23:48:44 23:51:32 18° 247° (WSW) 23:54:18 435.950
EO-79 24 Jul 23:53:12 23:54:43 12° 88° (E) 23:56:14 145.935-145.965
LO-87 24 Jul 23:53:14 23:56:42 41° 261° (W) 00:00:11 145.935 - 145.965
NANOSAT C BR1 24 Jul 23:53:59 23:54:49 10° 87° (E) 23:55:39 145.865
M-CUBED/EXP-1 PRIME 24 Jul 23:59:58 00:04:33 67° 108° (ESE) 00:09:12 437.505
VELOX 1 25 Jul 00:20:43 00:24:59 49° 70° (ENE) 00:29:17 145.980
ISS 25 Jul 00:24:36 00:27:39 36° 355° (N) 00:30:43 437.550
AIST 2D 25 Jul 00:26:59 00:30:27 60° 100° (E) 00:33:55 435.315
DX 1 25 Jul 00:27:56 00:31:14 21° 62° (ENE) 00:34:31 434.975-435.025
UNISAT 6 25 Jul 00:37:26 00:40:28 19° 298° (WNW) 00:43:28 437.425
PRISM 25 Jul 00:37:55 00:41:01 20° 297° (WNW) 00:44:06 437.425
Tancredo 1 25 Jul 00:50:29 00:53:15 36° 10° (N) 00:56:03 437.200
50 SAT 25 Jul 00:57:36 01:00:52 47° 72° (ENE) 01:04:11 437.505
DUCHIFAT 1 25 Jul 00:59:27 01:03:30 45° 99° (E) 01:07:29 145.980
RS-15 25 Jul 01:00:16 01:12:35 82° 51° (NE) 01:24:12 29.354- 29.394
POLYITAN 1 25 Jul 01:01:38 01:05:49 60° 101° (E) 01:09:57 437.675
nSIGHT-1 25 Jul 01:07:14 01:10:16 35° 4° (N) 01:13:17 .
O/OREOS (USA 219) 25 Jul 01:08:32 01:12:57 55° 61° (ENE) 01:17:22 437.305
UKube-1 25 Jul 01:10:04 01:14:00 36° 68° (ENE) 01:17:59 .
FO-29 25 Jul 01:13:04 01:17:25 17° 312° (NW) 01:21:33 435.910
SPROUT 25 Jul 01:13:09 01:17:14 43° 261° (W) 01:21:22 437.525
ESTCUBE 1 25 Jul 01:13:24 01:15:47 14° 271° (W) 01:18:09 437.505/2401.250
QB50P2 25 Jul 01:14:39 01:18:54 90° 262° (W) 01:23:06 145.880/145.840
EO-79 25 Jul 01:26:47 01:31:00 74° 286° (WNW) 01:35:10 145.935-145.965
NANOSAT C BR1 25 Jul 01:26:53 01:31:07 81° 285° (WNW) 01:35:17 145.865
BUGSAT 1 25 Jul 01:29:07 01:32:42 28° 95° (E) 01:36:13 437.445
M-CUBED/EXP-1 PRIME 25 Jul 01:35:20 01:38:30 19° 304° (NW) 01:41:44 437.505
Oscar 19 25 Jul 01:45:00 01:48:50 21° 91° (E) 01:52:39 437.125/150
VELOX 1 25 Jul 01:58:32 02:01:42 19° 268° (W) 02:04:54 145.980
ISS 25 Jul 02:01:22 02:04:32 47° 14° (NNE) 02:07:44 437.550
AIST 2D 25 Jul 02:02:04 02:03:11 11° 298° (WNW) 02:04:18 435.315
DX 1 25 Jul 02:02:55 02:07:07 46° 261° (W) 02:11:21 434.975-435.025
MOZHAYETS 4 25 Jul 02:07:25 02:09:36 13° 58° (ENE) 02:11:48
Gurwin Techsat 1B 25 Jul 02:09:54 02:14:04 23° 92° (E) 02:18:13 435.225
Tancredo 1 25 Jul 02:25:52 02:28:49 66° 209° (SSW) 02:31:45 437.200
50 SAT 25 Jul 02:32:30 02:33:53 12° 270° (W) 02:35:16 437.505
DUCHIFAT 1 25 Jul 02:35:50 02:38:51 20° 297° (WNW) 02:41:52 145.980
POLYITAN 1 25 Jul 02:38:35 02:41:08 16° 299° (WNW) 02:43:40 437.675
BEESAT 25 Jul 02:40:30 02:44:51 36° 66° (ENE) 02:49:13 436.000
nSIGHT-1 25 Jul 02:43:43 02:46:57 79° 24° (NNE) 02:50:11 .
UKube-1 25 Jul 02:46:33 02:50:07 25° 265° (W) 02:53:43 .
O/OREOS (USA 219) 25 Jul 02:48:54 02:51:56 18° 259° (W) 02:54:58 437.305
QB50P2 25 Jul 02:52:42 02:54:00 11° 303° (WNW) 02:55:19 145.880/145.840
ITUPSAT 1 25 Jul 02:53:25 02:57:59 46° 69° (ENE) 03:02:34 437.325
BUGSAT 1 25 Jul 03:04:28 03:08:01 28° 294° (WNW) 03:11:31 437.445
NANOSAT C BR1 25 Jul 03:05:38 03:06:04 10° 303° (WNW) 03:06:31 145.865
RS-15 25 Jul 03:13:45 03:23:48 33° 256° (WSW) 03:33:27 29.354- 29.394
Oscar 19 25 Jul 03:23:26 03:28:32 59° 289° (WNW) 03:33:36 437.125/150
ITAMSAT 1 25 Jul 03:36:42 03:40:05 17° 90° (E) 03:43:25 435.822/435.867
ISS 25 Jul 03:37:55 03:41:02 43° 214° (SW) 03:44:08 437.550
MOZHAYETS 4 25 Jul 03:41:31 03:46:07 86° 260° (W) 03:50:42
Gurwin Techsat 1B 25 Jul 03:49:09 03:54:21 55° 291° (WNW) 03:59:31 435.225
YUBILEINY 25 Jul 03:58:33 04:02:17 13° 47° (NE) 04:06:00 435.215
Tancredo 1 25 Jul 04:03:16 04:03:42 10° 226° (SW) 04:04:08 437.200
CUBESAT XI-V 25 Jul 04:16:12 04:20:34 45° 70° (ENE) 04:24:59 437.345
BEESAT 25 Jul 04:18:30 04:22:40 29° 265° (W) 04:26:51 436.000
nSIGHT-1 25 Jul 04:20:39 04:23:03 19° 222° (SW) 04:25:27 .
AO-7 25 Jul 04:21:26 04:29:26 46° 100° (E) 04:37:20 .
KKS-1 25 Jul 04:23:16 04:27:15 32° 66° (ENE) 04:31:16 437.445
ITUPSAT 1 25 Jul 04:32:14 04:36:02 23° 267° (W) 04:39:50 437.325
STARS 25 Jul 04:53:11 04:57:01 29° 65° (ENE) 05:00:50 437.465
PCSat 25 Jul 04:58:19 05:02:45 26° 109° (ESE) 05:07:13 145.827
Oscar 19 25 Jul 05:06:14 05:06:48 10° 309° (NW) 05:07:22 437.125/150
ITAMSAT 1 25 Jul 05:14:52 05:20:04 71° 288° (WNW) 05:25:14 435.822/435.867
MOZHAYETS 4 25 Jul 05:23:42 05:23:58 10° 274° (W) 05:24:14
DOVE 4 25 Jul 05:50:10 05:54:29 25° 91° (E) 05:58:39 437.250
YUBILEINY 25 Jul 05:53:04 06:01:39 53° 73° (ENE) 06:10:06 435.215
CUBESAT XI-V 25 Jul 05:54:38 05:58:10 22° 268° (W) 06:01:44 437.345
KKS-1 25 Jul 05:59:52 06:03:47 29° 264° (W) 06:07:45 437.445
AO-7 25 Jul 06:14:19 06:22:15 49° 300° (WNW) 06:30:07 .
STARS 25 Jul 06:29:16 06:33:16 33° 263° (W) 06:37:18 437.465
XW-2D 25 Jul 06:31:32 06:34:16 19° 93° (E) 06:36:59 145.860 - 145.880
PCSat 25 Jul 06:40:30 06:45:49 56° 309° (NW) 06:51:12 145.827
XW-2B 25 Jul 06:41:21 06:44:25 23° 94° (E) 06:47:28 145.730 - 145.750
SO-50 25 Jul 06:53:56 06:58:16 46° 120° (ESE) 07:02:35 436.795
ITAMSAT 1 25 Jul 06:56:32 06:58:37 12° 307° (NW) 07:00:41 435.822/435.867
XW-2C 25 Jul 06:58:23 07:01:53 36° 97° (E) 07:05:23 145.795 - 145.815
CUTE-I 25 Jul 07:02:55 07:07:53 37° 97° (E) 07:12:48 437.470
NUDT-PHONESAT 25 Jul 07:05:47 07:09:08 32° 97° (E) 07:12:28 437.300
STRAND 1 25 Jul 07:06:25 07:11:18 45° 68° (ENE) 07:16:13 437.568
HO-68 25 Jul 07:17:35 07:22:41 20° 89° (E) 07:27:44 435.675
KAITUO 1B 25 Jul 07:20:09 07:23:48 50° 100° (E) 07:27:25 145.475/437.950
LilacSat-2 25 Jul 07:21:43 07:25:31 74° 101° (E) 07:29:18 437.200
CUTE 1.7 + AOD 2 25 Jul 07:22:27 07:24:35 14° 89° (E) 07:26:43 437.475
DOVE 4 25 Jul 07:27:17 07:32:25 50° 290° (WNW) 07:37:21 437.250
SEEDS 25 Jul 07:34:58 07:36:27 12° 88° (E) 07:37:55 437.485
XW-2F 25 Jul 07:36:00 07:39:46 84° 283° (WNW) 07:43:31 145.980 - 146.000
YUBILEINY 25 Jul 07:50:18 07:58:11 39° 275° (W) 08:06:01 435.215
FO-29 25 Jul 07:57:29 08:02:59 22° 52° (NE) 08:08:31 435.910
UWE-3 25 Jul 08:02:22 08:02:59 10° 86° (E) 08:03:36 435.000/436.395/437.385
XW-2D 25 Jul 08:05:07 08:08:35 35° 290° (WNW) 08:12:03 145.860 - 145.880
AO-7 25 Jul 08:08:53 08:13:03 15° 324° (NW) 08:17:14 .
XW-2B 25 Jul 08:15:19 08:18:37 29° 291° (WNW) 08:21:53 145.730 - 145.750
AAUSAT CUBESAT 2 25 Jul 08:17:11 08:19:42 15° 90° (E) 08:22:13 437.432
XW-2A 25 Jul 08:21:16 08:24:14 29° 97° (E) 08:27:11 145.665 - 145.685
PCSat 25 Jul 08:27:09 08:30:27 16° 331° (NNW) 08:33:45 145.827
XW-2C 25 Jul 08:33:07 08:35:51 19° 295° (WNW) 08:38:36 145.795 - 145.815
SO-50 25 Jul 08:34:53 08:38:53 30° 320° (NW) 08:42:54 436.795
CUBEBUG 2 25 Jul 08:38:19 08:42:24 42° 98° (E) 08:46:22 437.445
NUDT-PHONESAT 25 Jul 08:40:05 08:42:51 20° 294° (WNW) 08:45:36 437.300
Oscar 11 25 Jul 08:41:04 08:42:14 11° 87° (E) 08:43:23 .
CUTE-I 25 Jul 08:43:03 08:47:54 35° 295° (WNW) 08:52:42 437.470
STRAND 1 25 Jul 08:46:22 08:50:40 26° 266° (W) 08:55:00 437.568
AO-73 25 Jul 08:53:47 08:56:44 19° 92° (E) 08:59:40 145.935
KAITUO 1B 25 Jul 08:55:17 08:57:25 15° 297° (WNW) 08:59:33 145.475/437.950
CUTE 1.7 + AOD 2 25 Jul 08:56:38 09:00:51 65° 286° (WNW) 09:05:04 437.475
LilacSat-2 25 Jul 08:58:04 08:59:14 11° 300° (WNW) 09:00:25 437.200
HO-68 25 Jul 09:04:04 09:11:16 85° 289° (WNW) 09:18:25 435.675
SEEDS 25 Jul 09:08:25 09:12:38 75° 286° (WNW) 09:16:52 437.485
TIGRISAT 25 Jul 09:09:58 09:13:24 21° 63° (ENE) 09:16:49 435.000
M-CUBED/EXP-1 PRIME 25 Jul 09:16:17 09:18:35 15° 53° (NE) 09:21:00 437.505
UWE-3 25 Jul 09:35:50 09:40:04 80° 284° (WNW) 09:44:12 435.000/436.395/437.385
FO-29 25 Jul 09:39:09 09:46:50 78° 72° (ENE) 09:54:44 435.910
ZACube-1 25 Jul 09:49:00 09:53:11 80° 103° (ESE) 09:57:19 437.345
AAUSAT CUBESAT 2 25 Jul 09:51:24 09:55:29 54° 287° (WNW) 09:59:34 437.432
PRISM 25 Jul 09:53:49 09:57:44 46° 71° (ENE) 10:01:43 437.425
XW-2A 25 Jul 09:54:25 09:56:48 18° 294° (WNW) 09:59:09 145.665 - 145.685
UNISAT 6 25 Jul 10:00:56 10:05:32 66° 73° (ENE) 10:10:04 437.425
Oscar 11 25 Jul 10:14:36 10:18:56 82° 284° (WNW) 10:23:15 .
CUBEBUG 2 25 Jul 10:15:31 10:18:46 21° 297° (WNW) 10:21:56 437.445
SO-50 25 Jul 10:19:47 10:20:47 11° 343° (NNW) 10:21:48 436.795
AO-73 25 Jul 10:29:15 10:33:12 43° 290° (WNW) 10:37:06 145.935
QB50P2 25 Jul 10:36:55 10:38:44 12° 58° (ENE) 10:40:32 145.880/145.840
TIGRISAT 25 Jul 10:45:16 10:49:47 50° 260° (W) 10:54:14 435.000
EO-79 25 Jul 10:48:11 10:50:34 15° 60° (ENE) 10:52:57 145.935-145.965
NANOSAT C BR1 25 Jul 10:48:21 10:50:25 13° 59° (ENE) 10:52:30 145.865
M-CUBED/EXP-1 PRIME 25 Jul 10:48:52 10:52:30 60° 254° (WSW) 10:56:29 437.505
DELFI C3 25 Jul 10:51:06 10:55:07 68° 101° (ESE) 10:59:06 145.870
HO-68 25 Jul 10:52:59 10:58:03 21° 309° (NW) 11:03:06 435.675
AIST 2D 25 Jul 11:04:06 11:07:15 33° 71° (ENE) 11:10:26 435.315
EO-88 25 Jul 11:13:45 11:17:25 80° 103° (ESE) 11:21:03 145.990 - 145.960
LO-87 25 Jul 11:18:31 11:20:05 12° 90° (E) 11:21:37 145.935 - 145.965
ESTCUBE 1 25 Jul 11:25:29 11:27:02 12° 87° (E) 11:28:36 437.505/2401.250
FO-29 25 Jul 11:26:20 11:32:32 26° 272° (W) 11:38:55 435.910
NO-84 25 Jul 11:26:55 11:29:32 26° 134° (SE) 11:32:20 435.350 FM
ZACube-1 25 Jul 11:27:12 11:28:51 12° 301° (WNW) 11:30:30 437.345
PRISM 25 Jul 11:30:28 11:33:16 18° 268° (W) 11:36:06 437.425
UNISAT 6 25 Jul 11:39:55 11:42:39 15° 270° (W) 11:45:22 437.425
Oscar 11 25 Jul 11:53:24 11:54:20 11° 303° (WNW) 11:55:16 .
DUCHIFAT 1 25 Jul 11:53:39 11:57:46 50° 71° (ENE) 12:01:52 145.980
POLYITAN 1 25 Jul 11:56:34 12:00:49 66° 73° (ENE) 12:05:04 437.675
PCSat 25 Jul 11:59:38 12:02:25 14° 25° (NNE) 12:05:11 145.827
QB50P2 25 Jul 12:09:37 12:13:54 83° 258° (WSW) 12:18:12 145.880/145.840
BUGSAT 1 25 Jul 12:21:18 12:25:02 31° 67° (ENE) 12:28:46 437.445
NANOSAT C BR1 25 Jul 12:21:19 12:25:34 76° 256° (WSW) 12:29:50 145.865
EO-79 25 Jul 12:21:34 12:25:49 68° 258° (WSW) 12:30:05 145.935-145.965
DELFI C3 25 Jul 12:27:25 12:29:22 13° 299° (WNW) 12:31:18 145.870
AO-85 25 Jul 12:27:59 12:30:42 18° 114° (ESE) 12:33:24 145.980
AIST 2D 25 Jul 12:38:13 12:40:34 17° 268° (W) 12:42:56 435.315
LO-87 25 Jul 12:50:18 12:53:50 51° 287° (WNW) 12:57:19 145.935 - 145.965
SPROUT 25 Jul 12:55:50 12:59:22 25° 94° (E) 13:02:54 437.525
ESTCUBE 1 25 Jul 12:59:53 13:04:26 84° 287° (WNW) 13:08:59 437.505/2401.250
BEESAT 3 25 Jul 13:00:33 13:04:14 37° 119° (ESE) 13:07:59 437.485
NO-84 25 Jul 13:03:45 13:06:49 45° 334° (NNW) 13:10:10 435.350 FM
Oscar 19 25 Jul 13:04:30 13:09:15 40° 67° (ENE) 13:14:02 437.125/150
DUCHIFAT 1 25 Jul 13:30:51 13:33:42 17° 269° (W) 13:36:33 145.980
Gurwin Techsat 1B 25 Jul 13:33:39 13:38:44 48° 68° (ENE) 13:43:51 435.225
AO-7 25 Jul 13:34:03 13:40:09 23° 46° (NE) 13:46:15 .
POLYITAN 1 25 Jul 13:34:56 13:37:02 13° 271° (W) 13:39:09 437.675
BEESAT 2 25 Jul 13:41:25 13:45:03 34° 118° (ESE) 13:48:45 435.950
PCSat 25 Jul 13:42:03 13:47:17 44° 48° (NE) 13:52:27 145.827
SO-50 25 Jul 13:42:14 13:45:40 21° 33° (NNE) 13:49:06 436.795
VELOX 1 25 Jul 13:43:39 13:48:07 65° 102° (ESE) 13:52:32 145.980
DX 1 25 Jul 13:48:11 13:51:46 24° 94° (E) 13:55:19 434.975-435.025
50 SAT 25 Jul 13:49:11 13:52:17 30° 97° (E) 13:55:20 437.505
BUGSAT 1 25 Jul 13:56:43 14:00:22 28° 265° (W) 14:04:02 437.445
AO-85 25 Jul 14:06:52 14:10:44 51° 312° (NW) 14:14:35 145.980
UKube-1 25 Jul 14:29:28 14:33:35 41° 99° (E) 14:37:41 .
SPROUT 25 Jul 14:31:28 14:35:21 34° 292° (WNW) 14:39:12 437.525
BEESAT 3 25 Jul 14:38:19 14:41:53 29° 318° (NW) 14:45:29 437.485
ESTCUBE 1 25 Jul 14:38:53 14:40:31 12° 303° (WNW) 14:42:07 437.505/2401.250
NO-84 25 Jul 14:42:09 14:44:56 23° 356° (N) 14:47:53 435.350 FM
Oscar 19 25 Jul 14:44:14 14:48:40 29° 265° (W) 14:53:09 437.125/150
